Retour au catalogue

FENGYUN 1C DEB

ActifPO
NORAD 30945·DEBRIS·🇨🇳 China

Lancé May 10, 1999 depuis Taiyuan Satellite Launch Center

Loading…

Prochains Passages (prochaines 24 heures)

TLE

FraisSource: Space-Track

Époque: Sep 12, 2026, 01:38 UTC

1 30945U 99025BAK 26255.06839056  .00001957  00000-0  75010-3 0  9991
2 30945  99.3797 290.3125 0028356 334.2117  81.1611 14.31633723  3233

Suivez FENGYUN 1C DEB en temps réel avec AllMySat

Download on the App Store